Regional Weather Roundup
Issued by NWS Mobile, AL

Home | Current Version | Previous Version | Text Only | Print | Product List | Glossary On
Versions: 1 2 3 4 5 6 7 8 9 10 11 12 13 14 15 16 17 18 19 20 21 22 23 24 25 26 27 28 29 30 31 32 33 34 35 36 37 38 39 40 41 42
000
ASUS44 KMOB 220110
RWRMOB
REGIONAL WEATHER ROUNDUP
NATIONAL WEATHER SERVICE MOBILE AL
800 PM CDT TUE OCT 21 2014

NOTE: "FAIR" INDICATES FEW OR NO CLOUDS BELOW 12,000 FEET WITH NO
      SIGNIFICANT WEATHER AND/OR OBSTRUCTIONS TO VISIBILITY.

  * THESE STATIONS ARE PART OF THE UNIVERSITY OF SOUTH ALABAMA
    MESONET AND ARE NOT UNDER NWS OR FAA QUALITY CONTROL.

ALZ061>064-220200-
COASTAL ALABAMA

CITY           SKY/WX    TMP DP  RH WIND       PRES   REMARKS
MOBILE REG APT PTCLDY    60  56  86 CALM      30.01R
BROOKLEY FIELD CLEAR     62  57  83 NW5       30.01R
USA CAMPUS*      N/A     63  55  77 CALM      30.01R
DOG RIVER*     NOT AVBL


CITY           SKY/WX    TMP DP  RH WIND       PRES   REMARKS
MOUNT VERNON*    N/A     57  55  94 CALM      30.00R
SARALAND*      NOT AVBL
BAY MINETTE*   NOT AVBL
LOXLEY*          N/A     59  57  94 NW2       30.00R
ROBERTSDALE*     N/A     63  55  77 CALM      29.99R
FAIRHOPE*        N/A     64  55  72 N2        29.99R
ELBERTA*         N/A     61  59  94 CALM      29.99R
FOLEY*           N/A     59  55  88 CALM      29.97R
GRAND BAY*       N/A     61  57  88 CALM      29.98R
DAUPHIN ISLND* NOT AVBL
BON SCOUR NWR* NOT AVBL
GULF SHORES    CLEAR     61  59  94 CALM      29.99R

$$

ALZ051>060-220200-
INTERIOR SOUTHWEST AND SOUTH CENTRAL ALABAMA

CITY           SKY/WX    TMP DP  RH WIND       PRES   REMARKS
GREENVILLE     CLEAR     61  55  81 CALM      30.00R
EVERGREEN      CLEAR     61  57  87 CALM      30.00R
CASTLEBERRY*   NOT AVBL
ATMORE*          N/A     63  55  77 CALM      30.01R
DIXIE*           N/A     64  55  72 CALM      29.97R
ANDALUSIA/OPP  CLEAR     65  55  70 NW3       29.99R
ANDALUSIA*       N/A     68  55  64 NW3       29.99R
FLORALA APT    CLEAR     62  54  74 CALM      30.01R
FLORALA*         N/A     59  55  88 CALM      29.97R

$$

FLZ001>006-220200-
WESTERN FLORIDA PANHANDLE

CITY           SKY/WX    TMP DP  RH WIND       PRES   REMARKS
PENSACOLA      CLEAR     67  54  63 NW3       29.98R
NAS PENSACOLA  CLEAR     62  56  80 CALM      29.98R
MILTON         PTCLDY    62  54  74 N3        29.99R
WHTNG S FIELD  CLEAR     64  56  75 N5        29.99R


CITY           SKY/WX    TMP DP  RH WIND       PRES   REMARKS
WALNUT HILL*   NOT AVBL
JAY*             N/A     68  54  60 CALM      30.00R
DUKE FIELD     CLEAR     61  55  82 CALM      29.98R
CRESTVIEW      CLEAR     59  55  87 CALM      30.00R
VALPARAISO     PTCLDY    66  57  73 NW2       29.98R
DESTIN         CLEAR     70  60  70 CALM      29.98R

$$

MSZ076-079-220200-
INTERIOR SOUTHEAST MISSISSIPPI

CITY           SKY/WX    TMP DP  RH WIND       PRES   REMARKS
LEAKESVILLE*     N/A     66  54  63 CALM      30.00R
AGRICOLA*      NOT AVBL

$$

MARINE OBSERVATIONS

STATION/POSITION TIME  TEMP    WIND        PRES    WAVE
                       AIR SEA DIR/SP/G            HT/PER
                 (UTC) (F)     (DEG/KT/KT) (MB)    (FT/S)
PASCAGOULA       0100   72     250/  2/  3 1015.4R
PETIT BOIS ISLND 0100   73     270/  3/  4 1015.8R
GRAND BAY        0000   72     250/  4     1016.0S
E DAUPHIN ISLAND 0000   76      20/ 10/ 12 1015.1R
USCG MOBILE BAY  0100   73 74  360/  3/  3 1014.3R
STATE DOCKS      0100   73 75              1015.4R
MEAHER PARK      0000   70        CALM     1015.6R
WEEKS BAY        0000   68                   N/A
FORT MORGAN      0100   76      30/ 14/ 15 1014.8R
12 S ORANGE BCH  0100   75 78  310/  6/  8 1014.8R   1/ 5
PENSACOLA BAY    0100   72 74  310/  3/  5 1015.5R
64 S DAUPHIN ISL 0033   74 79   50/  8/ 10 1015.8R   2/ 4
67 S FORT MORGAN 0000   74                 1014.9R

$$

SELECTED LOCATIONS ACROSS THE REGION

CITY           SKY/WX    TMP DP  RH WIND       PRES   REMARKS
NEW ORLEANS    CLEAR     71  55  56 CALM      30.00R
GULFPORT       CLEAR     65  60  84 CALM      29.99R
PASCAGOULA AP  CLEAR     59  57  93 CALM      30.00R
PASCAGOULA*      N/A     63  59  88 CALM      29.99R
HATTIESBURG    CLEAR     64  59  83 CALM      30.01R
LAUREL         CLEAR     61  54  77 N3        30.02S
MERIDIAN       CLEAR     60  56  86 CALM      30.02R
JACKSON        CLEAR     62  57  83 CALM      30.03R
MONTGOMERY     CLEAR     66  54  65 NW5       29.99R
TROY           CLEAR     60  54  80 CALM      29.99S
KINSTON*       NOT AVBL
GENEVA*          N/A     61  54  77 CALM      30.01R
ASHFORD*         N/A     68  55  64 NW3       29.99R
DOTHAN         CLEAR     65  55  70 NW5       30.02R
PANAMA CITY    CLEAR     62  57  83 CALM      29.96R

$$




USA.gov is the U.S. government's official web portal to all federal, state and local government web resources and services.